START_TIME,STEP,MOV.,AL01,t_acc.,AL02,t_acc.,E37,t_acc.,H21,t_acc.
1979-03-01 18:00:23.760 ,0,1,0.,24.0,0.,24.0,0.,24.0,0.,24.0
1979-03-01 18:00:47.760 ,0,1,0.,24.0,0.,24.0,0.,24.0,0.,24.0
1979-03-01 18:01:11.760 ,1,1,0.,24.0,0.,24.0,1.,24.0,0.,24.0
1979-03-01 18:01:35.760 ,2,1,0.,24.0,0.,24.0,0.,24.0,0.,24.0
1979-03-01 18:01:59.760 ,3,1,0.,24.0,1.,24.0,0.,24.0,0.,24.0
1979-03-01 18:02:23.760 ,4,1,0.,24.0,0.,24.0,0.,24.0,0.,24.0
1979-03-01 18:02:47.760 ,5,1,0.,24.0,0.,24.0,0.,24.0,0.,24.0
1979-03-01 18:03:11.760 ,6,1,0.,24.0,0.,24.0,0.,24.0,0.,24.0
1979-03-01 18:03:35.760 ,7,1,4.,24.0,0.,24.0,0.,24.0,0.,24.0
1979-03-01 18:03:59.760 ,7,1,7.,24.0,0.,24.0,0.,24.0,0.,24.0
1979-03-01 18:04:23.760 ,6,1,6.,24.0,0.,24.0,0.,24.0,0.,24.0
1979-03-01 18:04:47.760 ,5,1,0.,24.0,0.,24.0,0.,24.0,0.,24.0
1979-03-01 18:05:11.760 ,4,1,0.,24.0,0.,24.0,0.,24.0,0.,24.0
1979-03-01 18:05:35.760 ,3,1,0.,24.0,0.,24.0,0.,24.0,0.,24.0
1979-03-01 18:05:59.760 ,2,1,1.,24.0,1.,24.0,0.,24.0,0.,24.0
1979-03-01 18:06:23.760 ,1,1,0.,24.0,0.,24.0,0.,24.0,0.,24.0
1979-03-01 18:06:47.760 ,0,1,0.,24.0,0.,24.0,0.,24.0,0.,24.0
1979-03-01 18:07:11.760 ,0,1,1.,24.0,0.,24.0,0.,24.0,0.,24.0
1979-03-01 18:07:35.760 ,1,1,0.,24.0,0.,24.0,0.,24.0,0.,24.0
1979-03-01 18:07:59.760 ,2,1,0.,24.0,0.,24.0,0.,24.0,0.,24.0
1979-03-01 18:08:23.760 ,3,1,1.,24.0,0.,24.0,0.,24.0,0.,24.0
1979-03-01 18:08:47.760 ,4,1,0.,24.0,0.,24.0,0.,24.0,0.,24.0
1979-03-01 18:09:11.760 ,5,1,0.,24.0,0.,24.0,1.,24.0,0.,24.0
1979-03-01 18:09:35.760 ,6,1,0.,24.0,0.,24.0,0.,24.0,0.,24.0
1979-03-01 18:09:59.760 ,7,1,0.,24.0,0.,24.0,0.,24.0,0.,24.0
1979-03-01 18:10:23.760 ,7,1,7.,24.0,0.,24.0,1.,24.0,0.,24.0
1979-03-01 18:10:47.760 ,6,1,8.,24.0,0.,24.0,0.,24.0,0.,24.0
1979-03-01 18:11:11.760 ,5,1,1.,24.0,1.,24.0,1.,24.0,0.,24.0
1979-03-01 18:11:35.760 ,4,1,1.,24.0,0.,24.0,1.,24.0,0.,24.0
1979-03-01 18:11:59.760 ,3,1,0.,24.0,1.,24.0,0.,24.0,0.,24.0
1979-03-01 18:12:23.760 ,2,1,0.,24.0,0.,24.0,0.,24.0,0.,24.0
1979-03-01 18:12:47.760 ,1,1,0.,24.0,0.,24.0,0.,24.0,0.,24.0
1979-03-01 18:13:11.760 ,0,1,0.,24.0,1.,24.0,0.,24.0,0.,24.0
1979-03-01 18:13:35.760 ,0,1,0.,24.0,0.,24.0,0.,24.0,0.,24.0
1979-03-01 18:13:59.760 ,1,1,0.,24.0,0.,24.0,0.,24.0,0.,24.0
1979-03-01 18:14:23.760 ,2,1,1.,24.0,0.,24.0,1.,24.0,0.,24.0
1979-03-01 18:14:47.760 ,3,1,0.,24.0,0.,24.0,0.,24.0,0.,24.0
1979-03-01 18:15:11.760 ,4,1,0.,24.0,0.,24.0,0.,24.0,0.,24.0
1979-03-01 18:15:35.760 ,5,1,0.,24.0,0.,24.0,0.,24.0,0.,24.0
1979-03-01 18:15:59.760 ,6,1,0.,24.0,0.,24.0,0.,24.0,0.,24.0
1979-03-01 18:16:23.760 ,7,1,1.,24.0,0.,24.0,0.,24.0,0.,24.0
1979-03-01 18:16:47.760 ,7,1,10.,24.0,0.,24.0,0.,24.0,0.,24.0
1979-03-01 18:17:11.760 ,6,1,13.,24.0,0.,24.0,0.,24.0,0.,24.0
1979-03-01 18:17:35.760 ,5,1,0.,24.0,0.,24.0,0.,24.0,0.,24.0
1979-03-01 18:17:59.760 ,4,1,0.,24.0,0.,24.0,0.,24.0,0.,24.0
1979-03-01 18:18:23.760 ,3,1,1.,24.0,1.,24.0,0.,24.0,0.,24.0
1979-03-01 18:18:47.760 ,2,1,1.,24.0,0.,24.0,0.,24.0,0.,24.0
1979-03-01 18:19:11.760 ,1,1,0.,24.0,0.,24.0,0.,24.0,0.,24.0
1979-03-01 18:19:35.760 ,0,1,0.,24.0,0.,24.0,0.,24.0,0.,24.0
1979-03-01 18:19:59.760 ,0,1,0.,24.0,0.,24.0,0.,24.0,0.,24.0
1979-03-01 18:20:23.760 ,1,1,1.,24.0,1.,24.0,0.,24.0,0.,24.0
1979-03-01 18:20:47.760 ,2,1,0.,24.0,0.,24.0,0.,24.0,0.,24.0
1979-03-01 18:21:11.760 ,3,1,0.,24.0,0.,24.0,0.,24.0,0.,24.0
1979-03-01 18:21:35.760 ,4,1,0.,24.0,0.,24.0,0.,24.0,0.,24.0
1979-03-01 18:21:59.760 ,5,1,0.,24.0,0.,24.0,0.,24.0,0.,24.0
1979-03-01 18:22:23.760 ,6,1,0.,24.0,0.,24.0,1.,24.0,0.,24.0
1979-03-01 18:22:47.760 ,7,1,4.,24.0,0.,24.0,0.,24.0,0.,24.0
1979-03-01 18:23:11.760 ,7,1,12.,24.0,0.,24.0,0.,24.0,0.,24.0
1979-03-01 18:23:35.760 ,6,1,8.,24.0,0.,24.0,0.,24.0,0.,24.0
1979-03-01 18:23:59.760 ,5,1,0.,24.0,0.,24.0,0.,24.0,0.,24.0
1979-03-01 18:24:23.760 ,4,1,0.,24.0,0.,24.0,0.,24.0,0.,24.0
1979-03-01 18:24:47.760 ,3,1,0.,24.0,0.,24.0,0.,24.0,0.,24.0
1979-03-01 18:25:11.760 ,2,1,0.,24.0,0.,24.0,0.,24.0,0.,24.0
1979-03-01 18:25:35.760 ,1,1,0.,24.0,0.,24.0,0.,24.0,0.,24.0
1979-03-01 18:25:59.760 ,0,1,0.,24.0,0.,24.0,0.,24.0,0.,24.0
1979-03-01 18:26:23.760 ,0,1,0.,24.0,0.,24.0,0.,24.0,0.,24.0
1979-03-01 18:26:47.760 ,1,1,0.,24.0,0.,24.0,0.,24.0,0.,24.0
1979-03-01 18:27:11.760 ,2,1,0.,24.0,0.,24.0,0.,24.0,0.,24.0
1979-03-01 18:27:35.760 ,3,1,0.,24.0,0.,24.0,0.,24.0,0.,24.0
1979-03-01 18:27:59.760 ,4,1,0.,24.0,0.,24.0,0.,24.0,0.,24.0
1979-03-01 18:28:23.760 ,5,1,0.,24.0,0.,24.0,0.,24.0,0.,24.0
1979-03-01 18:28:47.760 ,6,1,0.,24.0,0.,24.0,1.,24.0,0.,24.0
1979-03-01 18:29:11.760 ,7,1,3.,24.0,0.,24.0,0.,24.0,0.,24.0
1979-03-01 18:29:35.760 ,7,1,8.,24.0,0.,24.0,1.,24.0,0.,24.0
1979-03-01 18:29:59.760 ,6,1,10.,24.0,0.,24.0,0.,24.0,0.,24.0
1979-03-01 18:30:23.760 ,5,1,0.,24.0,0.,24.0,0.,24.0,0.,24.0
1979-03-01 18:30:47.760 ,4,1,0.,24.0,0.,24.0,0.,24.0,0.,24.0
1979-03-01 18:31:11.760 ,3,1,0.,24.0,0.,24.0,1.,24.0,0.,24.0
1979-03-01 18:31:35.760 ,2,1,0.,24.0,1.,24.0,0.,24.0,0.,24.0
1979-03-01 18:31:59.760 ,1,1,0.,24.0,0.,24.0,0.,24.0,0.,24.0
1979-03-01 18:32:23.760 ,0,1,0.,24.0,0.,24.0,1.,24.0,0.,24.0
1979-03-01 18:32:47.760 ,0,1,0.,24.0,0.,24.0,1.,24.0,0.,24.0
1979-03-01 18:33:11.760 ,1,1,0.,24.0,0.,24.0,0.,24.0,0.,24.0
1979-03-01 18:33:35.760 ,2,1,0.,24.0,0.,24.0,0.,24.0,0.,24.0
1979-03-01 18:33:59.760 ,3,1,0.,24.0,0.,24.0,1.,24.0,0.,24.0
1979-03-01 18:34:23.760 ,4,1,1.,24.0,0.,24.0,0.,24.0,0.,24.0
1979-03-01 18:34:47.760 ,5,1,0.,24.0,0.,24.0,0.,24.0,0.,24.0
1979-03-01 18:35:11.760 ,6,1,0.,24.0,0.,24.0,0.,24.0,0.,24.0
1979-03-01 18:35:35.760 ,7,1,4.,24.0,0.,24.0,0.,24.0,0.,24.0
1979-03-01 18:35:59.760 ,7,1,7.,24.0,0.,24.0,0.,24.0,0.,24.0
1979-03-01 18:36:23.760 ,6,1,4.,24.0,0.,24.0,0.,24.0,0.,24.0
1979-03-01 18:36:47.760 ,5,1,0.,24.0,0.,24.0,0.,24.0,0.,24.0
1979-03-01 18:37:11.760 ,4,1,0.,24.0,0.,24.0,0.,24.0,0.,24.0
1979-03-01 18:37:35.760 ,3,1,0.,24.0,0.,24.0,0.,24.0,0.,24.0
1979-03-01 18:37:59.760 ,2,1,0.,24.0,0.,24.0,0.,24.0,0.,24.0
1979-03-01 18:38:23.760 ,1,1,0.,24.0,0.,24.0,1.,24.0,0.,24.0
1979-03-01 18:38:47.760 ,0,1,0.,24.0,0.,24.0,0.,24.0,0.,24.0
1979-03-01 18:39:11.760 ,0,1,0.,24.0,0.,24.0,0.,24.0,0.,24.0
1979-03-01 18:39:35.760 ,1,1,0.,24.0,0.,24.0,0.,24.0,0.,24.0
1979-03-01 18:39:59.760 ,2,1,0.,24.0,0.,24.0,0.,24.0,0.,24.0
1979-03-01 18:40:23.760 ,3,1,0.,24.0,0.,24.0,1.,24.0,0.,24.0
1979-03-01 18:40:47.760 ,4,1,0.,24.0,0.,24.0,0.,24.0,0.,24.0
1979-03-01 18:41:11.760 ,5,1,0.,24.0,0.,24.0,1.,24.0,0.,24.0
1979-03-01 18:41:35.760 ,6,1,0.,24.0,0.,24.0,0.,24.0,0.,24.0
1979-03-01 18:41:59.760 ,7,1,0.,24.0,0.,24.0,0.,24.0,0.,24.0
1979-03-01 18:42:23.760 ,7,1,5.,24.0,0.,24.0,1.,24.0,0.,24.0
1979-03-01 18:42:47.760 ,6,1,10.,24.0,0.,24.0,0.,24.0,0.,24.0
1979-03-01 18:43:11.760 ,5,1,0.,24.0,0.,24.0,0.,24.0,0.,24.0
1979-03-01 18:43:35.760 ,4,1,0.,24.0,0.,24.0,0.,24.0,0.,24.0
1979-03-01 18:43:59.760 ,3,1,0.,24.0,0.,24.0,0.,24.0,0.,24.0
1979-03-01 18:44:23.760 ,2,1,0.,24.0,0.,24.0,0.,24.0,0.,24.0
1979-03-01 18:44:47.760 ,1,1,1.,24.0,0.,24.0,0.,24.0,0.,24.0
1979-03-01 18:45:11.760 ,0,1,0.,24.0,0.,24.0,1.,24.0,0.,24.0
1979-03-01 18:45:35.760 ,0,1,0.,24.0,0.,24.0,0.,24.0,0.,24.0
1979-03-01 18:45:59.760 ,1,1,0.,24.0,0.,24.0,0.,24.0,0.,24.0
1979-03-01 18:46:23.760 ,2,1,0.,24.0,0.,24.0,0.,24.0,0.,24.0
1979-03-01 18:46:47.760 ,3,1,0.,24.0,0.,24.0,0.,24.0,0.,24.0
1979-03-01 18:47:11.760 ,4,1,0.,24.0,0.,24.0,0.,24.0,0.,24.0
1979-03-01 18:47:35.760 ,5,1,0.,24.0,0.,24.0,0.,24.0,0.,24.0
1979-03-01 18:47:59.760 ,6,1,0.,24.0,0.,24.0,0.,24.0,0.,24.0
1979-03-01 18:48:23.760 ,0,0,2.,24.0,0.,24.0,0.,24.0,0.,24.0
1979-03-01 18:48:47.760 ,7,1,9.,24.0,0.,24.0,0.,24.0,0.,24.0
1979-03-01 18:49:11.760 ,6,1,4.,24.0,0.,24.0,0.,24.0,0.,24.0
1979-03-01 18:49:35.760 ,5,1,0.,24.0,0.,24.0,0.,24.0,0.,24.0
1979-03-01 18:49:59.760 ,4,1,0.,24.0,0.,24.0,0.,24.0,0.,24.0
1979-03-01 18:50:23.760 ,3,1,0.,24.0,0.,24.0,0.,24.0,0.,24.0
1979-03-01 18:50:47.760 ,2,1,0.,24.0,0.,24.0,0.,24.0,0.,24.0
1979-03-01 18:51:11.760 ,1,1,0.,24.0,0.,24.0,0.,24.0,0.,24.0
1979-03-01 18:51:35.760 ,0,1,0.,24.0,0.,24.0,0.,24.0,0.,24.0
1979-03-01 18:51:59.760 ,0,1,0.,24.0,0.,24.0,0.,24.0,0.,24.0
1979-03-01 18:52:23.760 ,1,1,0.,24.0,0.,24.0,0.,24.0,0.,24.0
1979-03-01 18:52:47.760 ,2,1,0.,24.0,0.,24.0,2.,24.0,0.,24.0
1979-03-01 18:53:11.760 ,3,1,0.,24.0,0.,24.0,0.,24.0,0.,24.0
1979-03-01 18:53:35.760 ,4,1,0.,24.0,0.,24.0,0.,24.0,0.,24.0
1979-03-01 18:53:59.760 ,5,1,0.,24.0,0.,24.0,1.,24.0,0.,24.0
1979-03-01 18:54:23.760 ,6,1,0.,24.0,0.,24.0,0.,24.0,0.,24.0
1979-03-01 18:54:47.760 ,7,1,2.,24.0,0.,24.0,1.,24.0,0.,24.0
1979-03-01 18:55:11.760 ,7,1,13.,24.0,0.,24.0,0.,24.0,0.,24.0
1979-03-01 18:55:35.760 ,6,1,10.,24.0,0.,24.0,0.,24.0,0.,24.0
1979-03-01 18:55:59.760 ,5,1,0.,24.0,0.,24.0,0.,24.0,0.,24.0
1979-03-01 18:56:23.760 ,4,1,1.,24.0,0.,24.0,0.,24.0,0.,24.0
1979-03-01 18:56:47.760 ,3,1,0.,24.0,0.,24.0,0.,24.0,0.,24.0
1979-03-01 18:57:11.760 ,2,1,0.,24.0,0.,24.0,0.,24.0,0.,24.0
1979-03-01 18:57:35.760 ,1,1,0.,24.0,0.,24.0,0.,24.0,0.,24.0
1979-03-01 18:57:59.760 ,0,1,0.,24.0,1.,24.0,0.,24.0,0.,24.0
1979-03-01 18:58:23.760 ,0,1,1.,24.0,0.,24.0,0.,24.0,0.,24.0
1979-03-01 18:58:47.760 ,1,1,0.,24.0,0.,24.0,1.,24.0,0.,24.0
1979-03-01 18:59:11.760 ,2,1,0.,24.0,0.,24.0,0.,24.0,0.,24.0
1979-03-01 18:59:35.760 ,3,1,0.,24.0,0.,24.0,1.,24.0,0.,24.0
1979-03-01 18:59:59.760 ,4,1,0.,24.0,0.,24.0,0.,24.0,0.,24.0
1979-03-01 19:00:23.760 ,5,1,0.,24.0,0.,24.0,0.,24.0,0.,24.0
1979-03-01 19:00:47.760 ,6,1,1.,24.0,0.,24.0,0.,24.0,0.,24.0
1979-03-01 19:01:11.760 ,7,1,2.,24.0,0.,24.0,0.,24.0,0.,24.0
1979-03-01 19:01:35.760 ,7,1,13.,24.0,0.,24.0,0.,24.0,0.,24.0
1979-03-01 19:01:59.760 ,6,1,7.,24.0,0.,24.0,1.,24.0,0.,24.0
1979-03-01 19:02:23.760 ,5,1,0.,24.0,0.,24.0,0.,24.0,0.,24.0
1979-03-01 19:02:47.760 ,4,1,0.,24.0,0.,24.0,0.,24.0,0.,24.0
1979-03-01 19:03:11.760 ,3,1,0.,24.0,0.,24.0,0.,24.0,0.,24.0
1979-03-01 19:03:35.760 ,2,1,0.,24.0,0.,24.0,0.,24.0,0.,24.0
1979-03-01 19:03:59.760 ,1,1,0.,24.0,0.,24.0,0.,24.0,0.,24.0
1979-03-01 19:04:23.760 ,0,1,0.,24.0,0.,24.0,0.,24.0,0.,24.0
1979-03-01 19:04:47.760 ,0,1,0.,24.0,0.,24.0,0.,24.0,0.,24.0
1979-03-01 19:05:11.760 ,1,1,0.,24.0,0.,24.0,0.,24.0,0.,24.0
1979-03-01 19:05:35.760 ,2,1,0.,24.0,0.,24.0,0.,24.0,0.,24.0
1979-03-01 19:05:59.760 ,3,1,0.,24.0,0.,24.0,1.,24.0,0.,24.0
1979-03-01 19:06:23.760 ,4,1,0.,24.0,0.,24.0,0.,24.0,0.,24.0
1979-03-01 19:06:47.760 ,5,1,0.,24.0,0.,24.0,0.,24.0,0.,24.0
1979-03-01 19:07:11.760 ,6,1,0.,24.0,0.,24.0,0.,24.0,0.,24.0
1979-03-01 19:07:35.760 ,7,1,2.,24.0,0.,24.0,0.,24.0,0.,24.0
1979-03-01 19:07:59.760 ,7,1,8.,24.0,0.,24.0,0.,24.0,0.,24.0
1979-03-01 19:08:23.760 ,6,1,7.,24.0,0.,24.0,0.,24.0,0.,24.0
1979-03-01 19:08:47.760 ,5,1,0.,24.0,0.,24.0,0.,24.0,0.,24.0
1979-03-01 19:09:11.760 ,4,1,0.,24.0,0.,24.0,0.,24.0,0.,24.0
1979-03-01 19:09:35.760 ,3,1,0.,24.0,1.,24.0,0.,24.0,0.,24.0
1979-03-01 19:09:59.760 ,2,1,0.,24.0,0.,24.0,0.,24.0,0.,24.0
1979-03-01 19:10:23.760 ,1,1,0.,24.0,0.,24.0,1.,24.0,0.,24.0
1979-03-01 19:10:47.760 ,0,1,0.,24.0,0.,24.0,2.,24.0,0.,24.0
1979-03-01 19:11:11.760 ,0,1,1.,24.0,0.,24.0,0.,24.0,0.,24.0
1979-03-01 19:11:35.760 ,1,1,1.,24.0,0.,24.0,0.,24.0,0.,24.0
1979-03-01 19:11:59.760 ,2,1,1.,24.0,0.,24.0,1.,24.0,0.,24.0
1979-03-01 19:12:23.760 ,3,1,0.,24.0,1.,24.0,0.,24.0,0.,24.0
1979-03-01 19:12:47.760 ,4,1,0.,24.0,0.,24.0,0.,24.0,0.,24.0
1979-03-01 19:13:11.760 ,5,1,0.,24.0,0.,24.0,0.,24.0,0.,24.0
1979-03-01 19:13:35.760 ,6,1,0.,24.0,0.,24.0,0.,24.0,0.,24.0
1979-03-01 19:13:59.760 ,7,1,2.,24.0,0.,24.0,0.,24.0,0.,24.0
1979-03-01 19:14:23.760 ,7,1,10.,24.0,0.,24.0,0.,24.0,0.,24.0
1979-03-01 19:14:47.760 ,6,1,8.,24.0,0.,24.0,0.,24.0,0.,24.0
1979-03-01 19:15:11.760 ,5,1,0.,24.0,0.,24.0,1.,24.0,0.,24.0
1979-03-01 19:15:35.760 ,4,1,0.,24.0,0.,24.0,0.,24.0,0.,24.0
1979-03-01 19:15:59.760 ,3,1,1.,24.0,0.,24.0,0.,24.0,0.,24.0
1979-03-01 19:16:23.760 ,2,1,0.,24.0,1.,24.0,0.,24.0,0.,24.0
1979-03-01 19:16:47.760 ,1,1,0.,24.0,0.,24.0,0.,24.0,0.,24.0
1979-03-01 19:17:11.760 ,0,1,0.,24.0,0.,24.0,0.,24.0,0.,24.0
1979-03-01 19:17:35.760 ,0,1,0.,24.0,1.,24.0,0.,24.0,0.,24.0
1979-03-01 19:17:59.760 ,1,1,1.,24.0,0.,24.0,0.,24.0,0.,24.0
1979-03-01 19:18:23.760 ,2,1,0.,24.0,0.,24.0,0.,24.0,0.,24.0
1979-03-01 19:18:47.760 ,3,1,0.,24.0,0.,24.0,0.,24.0,0.,24.0
1979-03-01 19:19:11.760 ,4,1,2.,24.0,0.,24.0,0.,24.0,0.,24.0
1979-03-01 19:19:35.760 ,5,1,1.,24.0,0.,24.0,0.,24.0,0.,24.0
1979-03-01 19:19:59.760 ,6,1,0.,24.0,0.,24.0,0.,24.0,0.,24.0
1979-03-01 19:20:23.760 ,7,1,4.,24.0,0.,24.0,0.,24.0,0.,24.0
1979-03-01 19:20:47.760 ,7,1,12.,24.0,0.,24.0,0.,24.0,0.,24.0
1979-03-01 19:21:11.760 ,6,1,7.,24.0,0.,24.0,0.,24.0,0.,24.0
1979-03-01 19:21:35.760 ,5,1,0.,24.0,0.,24.0,0.,24.0,0.,24.0
1979-03-01 19:21:59.760 ,4,1,1.,24.0,0.,24.0,0.,24.0,0.,24.0
1979-03-01 19:22:23.760 ,3,1,0.,24.0,0.,24.0,0.,24.0,0.,24.0
1979-03-01 19:22:47.760 ,2,1,1.,24.0,0.,24.0,0.,24.0,0.,24.0
1979-03-01 19:23:11.760 ,0,0,0.,24.0,0.,24.0,0.,24.0,0.,24.0
1979-03-01 19:23:35.760 ,0,1,0.,24.0,0.,24.0,0.,24.0,0.,24.0
1979-03-01 19:23:59.760 ,0,1,2.,24.0,0.,24.0,1.,24.0,0.,24.0
1979-03-01 19:24:23.760 ,1,1,1.,24.0,0.,24.0,1.,24.0,0.,24.0
1979-03-01 19:24:47.760 ,2,1,0.,24.0,0.,24.0,0.,24.0,0.,24.0
1979-03-01 19:25:11.760 ,3,1,1.,24.0,0.,24.0,0.,24.0,0.,24.0
1979-03-01 19:25:35.760 ,4,1,3.,24.0,0.,24.0,0.,24.0,0.,24.0
1979-03-01 19:25:59.760 ,5,1,0.,24.0,0.,24.0,0.,24.0,0.,24.0
1979-03-01 19:26:23.760 ,6,1,0.,24.0,0.,24.0,0.,24.0,0.,24.0
1979-03-01 19:26:47.760 ,7,1,1.,24.0,0.,24.0,0.,24.0,0.,24.0
1979-03-01 19:27:11.760 ,7,1,5.,24.0,0.,24.0,0.,24.0,0.,24.0
1979-03-01 19:27:35.760 ,6,1,7.,24.0,0.,24.0,0.,24.0,0.,24.0
1979-03-01 19:27:59.760 ,5,1,0.,24.0,0.,24.0,0.,24.0,0.,24.0
1979-03-01 19:28:23.760 ,4,1,2.,24.0,0.,24.0,0.,24.0,0.,24.0
1979-03-01 19:28:47.760 ,3,1,2.,24.0,0.,24.0,1.,24.0,0.,24.0
1979-03-01 19:29:11.760 ,2,1,3.,24.0,0.,24.0,0.,24.0,0.,24.0
1979-03-01 19:29:35.760 ,1,1,0.,24.0,0.,24.0,0.,24.0,0.,24.0
1979-03-01 19:29:59.760 ,0,1,0.,24.0,0.,24.0,0.,24.0,0.,24.0
1979-03-01 19:30:23.760 ,0,1,1.,24.0,0.,24.0,1.,24.0,0.,24.0
1979-03-01 19:30:47.760 ,1,1,1.,24.0,0.,24.0,1.,24.0,0.,24.0
1979-03-01 19:31:11.760 ,2,1,0.,24.0,0.,24.0,0.,24.0,0.,24.0
1979-03-01 19:31:35.760 ,3,1,1.,24.0,1.,24.0,0.,24.0,0.,24.0
1979-03-01 19:31:59.760 ,4,1,1.,24.0,0.,24.0,0.,24.0,0.,24.0
1979-03-01 19:32:23.760 ,5,1,0.,24.0,0.,24.0,1.,24.0,0.,24.0
1979-03-01 19:32:47.760 ,6,1,0.,24.0,0.,24.0,0.,24.0,0.,24.0
1979-03-01 19:33:11.760 ,7,1,3.,24.0,0.,24.0,1.,24.0,0.,24.0
1979-03-01 19:33:35.760 ,7,1,10.,24.0,0.,24.0,0.,24.0,0.,24.0
1979-03-01 19:33:59.760 ,6,1,7.,24.0,0.,24.0,0.,24.0,0.,24.0
1979-03-01 19:34:23.760 ,5,1,0.,24.0,0.,24.0,0.,24.0,0.,24.0
1979-03-01 19:34:47.760 ,4,1,0.,24.0,0.,24.0,0.,24.0,0.,24.0
1979-03-01 19:35:11.760 ,3,1,3.,24.0,1.,24.0,0.,24.0,0.,24.0
1979-03-01 19:35:35.760 ,2,1,2.,24.0,2.,24.0,0.,24.0,0.,24.0
1979-03-01 19:35:59.760 ,1,1,0.,24.0,0.,24.0,0.,24.0,0.,24.0
1979-03-01 19:36:23.760 ,0,1,0.,24.0,0.,24.0,1.,24.0,0.,24.0
1979-03-01 19:36:47.760 ,0,1,2.,24.0,0.,24.0,0.,24.0,0.,24.0
1979-03-01 19:37:11.760 ,1,1,2.,24.0,1.,24.0,1.,24.0,0.,24.0
1979-03-01 19:37:35.760 ,2,1,0.,24.0,0.,24.0,0.,24.0,0.,24.0
1979-03-01 19:37:59.760 ,3,1,2.,24.0,0.,24.0,2.,24.0,0.,24.0
1979-03-01 19:38:23.760 ,4,1,4.,24.0,2.,24.0,0.,24.0,0.,24.0
1979-03-01 19:38:47.760 ,5,1,1.,24.0,0.,24.0,0.,24.0,0.,24.0
1979-03-01 19:39:11.760 ,6,1,0.,24.0,0.,24.0,2.,24.0,0.,24.0
1979-03-01 19:39:35.760 ,7,1,0.,24.0,0.,24.0,0.,24.0,0.,24.0
1979-03-01 19:39:59.760 ,7,1,9.,24.0,0.,24.0,0.,24.0,0.,24.0
1979-03-01 19:40:23.760 ,6,1,6.,24.0,0.,24.0,1.,24.0,0.,24.0
1979-03-01 19:40:47.760 ,5,1,0.,24.0,0.,24.0,1.,24.0,0.,24.0
1979-03-01 19:41:11.760 ,4,1,2.,24.0,0.,24.0,2.,24.0,0.,24.0
1979-03-01 19:41:35.760 ,3,1,7.,24.0,0.,24.0,4.,24.0,0.,24.0
1979-03-01 19:41:59.760 ,2,1,2.,24.0,0.,24.0,0.,24.0,0.,24.0
1979-03-01 19:42:23.760 ,1,1,1.,24.0,0.,24.0,0.,24.0,0.,24.0
1979-03-01 19:42:47.760 ,0,1,2.,24.0,0.,24.0,1.,24.0,0.,24.0
1979-03-01 19:43:11.760 ,0,1,2.,24.0,1.,24.0,3.,24.0,0.,24.0
1979-03-01 19:43:35.760 ,1,1,3.,24.0,0.,24.0,1.,24.0,0.,24.0
1979-03-01 19:43:59.760 ,2,1,2.,24.0,1.,24.0,4.,24.0,0.,24.0
1979-03-01 19:44:23.760 ,3,1,2.,24.0,0.,24.0,1.,24.0,0.,24.0
1979-03-01 19:44:47.760 ,4,1,7.,24.0,1.,24.0,2.,24.0,0.,24.0
1979-03-01 19:45:11.760 ,5,1,4.,24.0,0.,24.0,1.,24.0,0.,24.0
1979-03-01 19:45:35.760 ,6,1,0.,24.0,0.,24.0,7.,24.0,0.,24.0
1979-03-01 19:45:59.760 ,7,1,1.,24.0,0.,24.0,3.,24.0,0.,24.0
1979-03-01 19:46:23.760 ,7,1,13.,24.0,0.,24.0,3.,24.0,0.,24.0
1979-03-01 19:46:47.760 ,6,1,7.,24.0,0.,24.0,5.,24.0,0.,24.0
1979-03-01 19:47:11.760 ,5,1,0.,24.0,0.,24.0,2.,24.0,0.,24.0
1979-03-01 19:47:35.760 ,4,1,6.,24.0,1.,24.0,6.,24.0,0.,24.0
1979-03-01 19:47:59.760 ,3,1,7.,24.0,2.,24.0,3.,24.0,0.,24.0
1979-03-01 19:48:23.760 ,2,1,7.,24.0,1.,24.0,3.,24.0,0.,24.0
1979-03-01 19:48:47.760 ,1,1,0.,24.0,1.,24.0,5.,24.0,0.,24.0
1979-03-01 19:49:11.760 ,0,1,4.,24.0,0.,24.0,8.,24.0,0.,24.0
1979-03-01 19:49:35.760 ,0,1,2.,24.0,1.,24.0,6.,24.0,0.,24.0
1979-03-01 19:49:59.760 ,1,1,1.,24.0,1.,24.0,5.,24.0,0.,24.0
1979-03-01 19:50:23.760 ,2,1,1.,24.0,0.,24.0,4.,24.0,0.,24.0
1979-03-01 19:50:47.760 ,3,1,2.,24.0,1.,24.0,13.,24.0,0.,24.0
1979-03-01 19:51:11.760 ,4,1,7.,24.0,0.,24.0,7.,24.0,0.,24.0
1979-03-01 19:51:35.760 ,5,1,8.,24.0,1.,24.0,12.,24.0,0.,24.0
1979-03-01 19:51:59.760 ,6,1,2.,24.0,1.,24.0,7.,24.0,0.,24.0
1979-03-01 19:52:23.760 ,7,1,0.,24.0,0.,24.0,7.,24.0,0.,24.0
1979-03-01 19:52:47.760 ,7,1,6.,24.0,0.,24.0,9.,24.0,0.,24.0
1979-03-01 19:53:11.760 ,6,1,11.,24.0,0.,24.0,9.,24.0,0.,24.0
1979-03-01 19:53:35.760 ,5,1,1.,24.0,1.,24.0,10.,24.0,0.,24.0
1979-03-01 19:53:59.760 ,4,1,9.,24.0,0.,24.0,13.,24.0,0.,24.0
1979-03-01 19:54:23.760 ,3,1,11.,24.0,1.,24.0,6.,24.0,0.,24.0
1979-03-01 19:54:47.760 ,2,1,3.,24.0,1.,24.0,6.,24.0,0.,24.0
1979-03-01 19:55:11.760 ,1,1,3.,24.0,0.,24.0,15.,24.0,0.,24.0
1979-03-01 19:55:35.760 ,0,1,2.,24.0,0.,24.0,13.,24.0,0.,24.0
1979-03-01 19:55:59.760 ,0,1,3.,24.0,0.,24.0,11.,24.0,0.,24.0
1979-03-01 19:56:23.760 ,1,1,2.,24.0,0.,24.0,19.,24.0,0.,24.0
1979-03-01 19:56:47.760 ,2,1,2.,24.0,0.,24.0,15.,24.0,0.,24.0
1979-03-01 19:57:11.760 ,3,1,1.,24.0,0.,24.0,11.,24.0,0.,24.0
1979-03-01 19:57:35.760 ,4,1,2.,24.0,0.,24.0,6.,24.0,0.,24.0
1979-03-01 19:57:59.760 ,5,1,11.,24.0,1.,24.0,11.,24.0,0.,24.0
1979-03-01 19:58:23.760 ,6,1,17.,24.0,5.,24.0,20.,24.0,0.,24.0
1979-03-01 19:58:47.760 ,7,1,7.,24.0,1.,24.0,22.,24.0,0.,24.0
1979-03-01 19:59:11.760 ,7,1,8.,24.0,0.,24.0,25.,24.0,0.,24.0
1979-03-01 19:59:35.760 ,6,1,7.,24.0,0.,24.0,23.,24.0,0.,24.0
1979-03-01 19:59:59.760 ,5,1,26.,24.0,0.,24.0,24.,24.0,0.,24.0
1979-03-01 20:00:23.760 ,4,1,25.,24.0,2.,24.0,25.,24.0,0.,24.0
1979-03-01 20:00:47.760 ,3,1,6.,24.0,1.,24.0,15.,24.0,0.,24.0
1979-03-01 20:01:11.760 ,2,1,4.,24.0,1.,24.0,16.,24.0,0.,24.0
1979-03-01 20:01:35.760 ,1,1,0.,24.0,0.,24.0,19.,24.0,0.,24.0
1979-03-01 20:01:59.760 ,0,1,1.,24.0,0.,24.0,17.,24.0,0.,24.0
1979-03-01 20:02:23.760 ,0,1,2.,24.0,0.,24.0,26.,24.0,0.,24.0
1979-03-01 20:02:47.760 ,1,1,2.,24.0,0.,24.0,22.,24.0,0.,24.0
1979-03-01 20:03:11.760 ,2,1,0.,24.0,0.,24.0,18.,24.0,0.,24.0
1979-03-01 20:03:35.760 ,3,1,3.,24.0,0.,24.0,12.,24.0,0.,24.0
1979-03-01 20:03:59.760 ,4,1,7.,24.0,2.,24.0,13.,24.0,0.,24.0
1979-03-01 20:04:23.760 ,5,1,18.,24.0,3.,24.0,22.,24.0,0.,24.0
1979-03-01 20:04:47.760 ,6,1,51.,24.0,6.,24.0,31.,24.0,0.,24.0
1979-03-01 20:05:11.760 ,7,1,49.,24.0,6.,24.0,21.,24.0,0.,24.0
1979-03-01 20:05:35.760 ,7,1,14.,24.0,0.,24.0,27.,24.0,0.,24.0
1979-03-01 20:05:59.760 ,6,1,22.,24.0,3.,24.0,28.,24.0,0.,24.0
1979-03-01 20:06:23.760 ,5,1,53.,24.0,6.,24.0,22.,24.0,0.,24.0
1979-03-01 20:06:47.760 ,4,1,68.,24.0,3.,24.0,22.,24.0,0.,24.0
1979-03-01 20:07:11.760 ,3,1,10.,24.0,0.,24.0,22.,24.0,0.,24.0
1979-03-01 20:07:35.760 ,2,1,3.,24.0,0.,24.0,10.,24.0,0.,24.0
1979-03-01 20:07:59.760 ,1,1,3.,24.0,0.,24.0,25.,24.0,0.,24.0
1979-03-01 20:08:23.760 ,0,1,0.,24.0,1.,24.0,20.,24.0,0.,24.0
1979-03-01 20:08:47.760 ,0,1,6.,24.0,1.,24.0,27.,24.0,0.,24.0
1979-03-01 20:09:11.760 ,1,1,4.,24.0,0.,24.0,24.,24.0,0.,24.0
1979-03-01 20:09:35.760 ,2,1,2.,24.0,1.,24.0,26.,24.0,0.,24.0
1979-03-01 20:09:59.760 ,3,1,2.,24.0,0.,24.0,20.,24.0,0.,24.0
1979-03-01 20:10:23.760 ,4,1,12.,24.0,0.,24.0,15.,24.0,0.,24.0
1979-03-01 20:10:47.760 ,5,1,32.,24.0,5.,24.0,28.,24.0,0.,24.0
1979-03-01 20:11:11.760 ,6,1,60.,24.0,6.,24.0,21.,24.0,0.,24.0
1979-03-01 20:11:35.760 ,7,1,34.,24.0,5.,24.0,19.,24.0,0.,24.0
1979-03-01 20:11:59.760 ,7,1,8.,24.0,0.,24.0,27.,24.0,0.,24.0
1979-03-01 20:12:23.760 ,6,1,21.,24.0,0.,24.0,25.,24.0,0.,24.0
1979-03-01 20:12:47.760 ,5,1,47.,24.0,4.,24.0,25.,24.0,0.,24.0
1979-03-01 20:13:11.760 ,0,0,52.,24.0,6.,24.0,28.,24.0,0.,24.0
1979-03-01 20:13:35.760 ,3,1,25.,24.0,0.,24.0,23.,24.0,0.,24.0
1979-03-01 20:13:59.760 ,2,1,5.,24.0,2.,24.0,22.,24.0,0.,24.0
1979-03-01 20:14:23.760 ,1,1,2.,24.0,0.,24.0,34.,24.0,0.,24.0
1979-03-01 20:14:47.760 ,0,1,3.,24.0,0.,24.0,22.,24.0,0.,24.0
1979-03-01 20:15:11.760 ,0,1,6.,24.0,0.,24.0,24.,24.0,0.,24.0
1979-03-01 20:15:35.760 ,1,1,2.,24.0,1.,24.0,18.,24.0,0.,24.0
1979-03-01 20:15:59.760 ,2,1,2.,24.0,0.,24.0,20.,24.0,0.,24.0
1979-03-01 20:16:23.760 ,3,1,3.,24.0,0.,24.0,14.,24.0,0.,24.0
1979-03-01 20:16:47.760 ,4,1,8.,24.0,1.,24.0,9.,24.0,0.,24.0
1979-03-01 20:17:11.760 ,5,1,22.,24.0,4.,24.0,20.,24.0,0.,24.0
1979-03-01 20:17:35.760 ,6,1,32.,24.0,4.,24.0,20.,24.0,0.,24.0
1979-03-01 20:17:59.760 ,7,1,25.,24.0,4.,24.0,30.,24.0,0.,24.0
1979-03-01 20:18:23.760 ,7,1,,0,,0,,0,,0
1979-03-01 20:18:47.760 ,6,1,16.,24.0,0.,24.0,25.,24.0,0.,24.0
1979-03-01 20:19:11.760 ,5,1,37.,24.0,8.,24.0,31.,24.0,0.,24.0
1979-03-01 20:19:35.760 ,4,1,38.,24.0,5.,24.0,29.,24.0,0.,24.0
1979-03-01 20:19:59.760 ,3,1,17.,24.0,2.,24.0,20.,24.0,0.,24.0
1979-03-01 20:20:23.760 ,2,1,15.,24.0,0.,24.0,15.,24.0,0.,24.0
1979-03-01 20:20:47.760 ,1,1,3.,24.0,2.,24.0,42.,24.0,0.,24.0
1979-03-01 20:21:11.760 ,0,1,2.,24.0,0.,24.0,46.,24.0,0.,24.0
1979-03-01 20:21:35.760 ,0,1,6.,24.0,0.,24.0,44.,24.0,0.,24.0
1979-03-01 20:21:59.760 ,1,1,6.,24.0,1.,24.0,36.,24.0,0.,24.0
1979-03-01 20:22:23.760 ,2,1,1.,24.0,0.,24.0,33.,24.0,0.,24.0
1979-03-01 20:22:47.760 ,3,1,4.,24.0,0.,24.0,18.,24.0,0.,24.0
1979-03-01 20:23:11.760 ,4,1,17.,24.0,1.,24.0,20.,24.0,0.,24.0
1979-03-01 20:23:35.760 ,5,1,31.,24.0,2.,24.0,33.,24.0,0.,24.0
1979-03-01 20:23:59.760 ,6,1,32.,24.0,3.,24.0,31.,24.0,0.,24.0
1979-03-01 20:24:23.760 ,7,1,16.,24.0,0.,24.0,35.,24.0,0.,24.0
1979-03-01 20:24:47.760 ,7,1,8.,24.0,0.,24.0,33.,24.0,0.,24.0
1979-03-01 20:25:11.760 ,6,1,18.,24.0,1.,24.0,28.,24.0,0.,24.0
1979-03-01 20:25:35.760 ,5,1,31.,24.0,7.,24.0,37.,24.0,0.,24.0
1979-03-01 20:25:59.760 ,4,1,28.,24.0,4.,24.0,46.,24.0,0.,24.0
1979-03-01 20:26:23.760 ,3,1,23.,24.0,4.,24.0,28.,24.0,0.,24.0
1979-03-01 20:26:47.760 ,2,1,8.,24.0,1.,24.0,17.,24.0,0.,24.0
1979-03-01 20:27:11.760 ,1,1,2.,24.0,0.,24.0,31.,24.0,0.,24.0
1979-03-01 20:27:35.760 ,0,1,3.,24.0,0.,24.0,41.,24.0,0.,24.0
1979-03-01 20:27:59.760 ,0,1,3.,24.0,0.,24.0,32.,24.0,0.,24.0
1979-03-01 20:28:23.760 ,1,1,3.,24.0,0.,24.0,37.,24.0,0.,24.0
1979-03-01 20:28:47.760 ,2,1,1.,24.0,1.,24.0,33.,24.0,0.,24.0
1979-03-01 20:29:11.760 ,3,1,7.,24.0,0.,24.0,24.,24.0,0.,24.0
1979-03-01 20:29:35.760 ,4,1,14.,24.0,1.,24.0,29.,24.0,0.,24.0
1979-03-01 20:29:59.760 ,5,1,21.,24.0,3.,24.0,32.,24.0,0.,24.0
1979-03-01 20:30:23.760 ,6,1,31.,24.0,3.,24.0,38.,24.0,0.,24.0
1979-03-01 20:30:47.760 ,7,1,15.,24.0,1.,24.0,36.,24.0,0.,24.0
1979-03-01 20:31:11.760 ,7,1,7.,24.0,0.,24.0,27.,24.0,0.,24.0
1979-03-01 20:31:35.760 ,6,1,10.,24.0,0.,24.0,32.,24.0,0.,24.0
1979-03-01 20:31:59.760 ,5,1,24.,24.0,2.,24.0,31.,24.0,0.,24.0
1979-03-01 20:32:23.760 ,4,1,27.,24.0,2.,24.0,38.,24.0,0.,24.0
1979-03-01 20:32:47.760 ,3,1,23.,24.0,1.,24.0,32.,24.0,0.,24.0
1979-03-01 20:33:11.760 ,2,1,8.,24.0,2.,24.0,21.,24.0,0.,24.0